Regional Weather Roundup
Issued by NWS

Home | Current Version | Previous Version | Text Only | Print | Product List | Glossary On
Versions: 1 2 3 4 5 6 7 8 9 10 11 12 13 14 15 16 17 18 19 20 21 22 23 24 25 26 27 28 29 30 31 32 33 34 35 36 37 38 39 40 41 42 43 44 45 46 47 48 49 50
000
ASUS43 KDTX 290210
RWRMI
MICHIGAN HOURLY REGIONAL WEATHER ROUNDUP
NATIONAL WEATHER SERVICE DETROIT/PONTIAC MI
900 PM EST FRI NOV 28 2014

NOTE: "FAIR" INDICATES FEW OR NO CLOUDS BELOW 12,000 FEET WITH NO
SIGNIFICANT WEATHER AND/OR OBSTRUCTION TO VISIBILITY.

MIZ047>049-052>055-059>063-066>070-074>076-081>083-290300-
SOUTHEAST LOWER MICHIGAN

CITY           SKY/WX    TMP DP  RH WIND       PRES   REMARKS
ADRIAN         CLOUDY    27  22  81 S7        30.10F WCI  19
ALMA           CLOUDY    25  22  90 SE6       30.08F WCI  18
ANN ARBOR      CLOUDY    26  21  81 SE6       30.11S WCI  19
BAD AXE        LGT SNOW  23  21  93 SE6       30.11F WCI  16
CARO           CLOUDY    25  21  86 SE8       30.10F WCI  16
DETROIT CITY   CLOUDY    29  23  78 S6        30.13F WCI  23
DETROIT        CLOUDY    28  22  78 SE6       30.13F WCI  22
FLINT          CLOUDY    27  21  78 S8        30.10F WCI  19
GROSSE ILE     CLOUDY    30  25  80 S13       30.11F WCI  20
HILLSDALE      MOCLDY    26  23  87 SE7       30.05F WCI  19
HOWELL         CLOUDY    25  22  87 SE10      30.07F WCI  15

CITY           SKY/WX    TMP DP  RH WIND       PRES   REMARKS
JACKSON        CLOUDY    26  20  77 S9        30.06F WCI  17
LAMBERTVILLE   CLOUDY    30  23  74 SE3       30.11F
LANSING        CLOUDY    27  20  75 S10       30.07F WCI  17
LAPEER         FLURRIES  25  21  86 S3        30.10F
MASON          CLOUDY    27  22  81 S8        30.06F WCI  19
MONROE         CLOUDY    28  25  86 S7        30.11S WCI  21
MT. CLEMENS    CLOUDY    27  27 100 S10       30.10F WCI  17
PONTIAC        LGT SNOW  24  21  88 S8        30.09F WCI  15
PORT HOPE        N/A     24  17  74 S5        30.12F WCI  18
PORT HURON     LGT SNOW  25  23  93 S7        30.14S WCI  17
TRI CITIES     FLURRIES  26  21  81 SE9       30.10F WCI  17
TROY           CLOUDY    28  25  87 S3        30.13F
SAGINAW HB     CLOUDY    27  23  86 SE7       30.10F FOG     WCI  19
$$
MIZ043>046-050>051-056>058-064>065-071>073-077>080-290300-
SOUTHWEST LOWER MICHIGAN

CITY           SKY/WX    TMP DP  RH WIND       PRES   REMARKS
BATTLE CREEK   CLOUDY    29  19  66 S12       30.03F WCI  19
BENTON HARBOR  CLOUDY    29  21  72 SE10      29.99F WCI  20
BIG RAPIDS     LGT SNOW  24  22  93 SE8       30.01F WCI  15
COLDWATER      MOCLDY    29  22  75 SE7       30.04F WCI  22
FREMONT        FLURRIES  25  20  80 SE9       30.01F WCI  16
HOLLAND        CLOUDY    29  20  69 SE10      30.02F WCI  20
GRAND RAPIDS   CLOUDY    27  19  72 SE8       30.03F WCI  19
IONIA          CLOUDY    28  22  79 S8        30.05S WCI  19
KALAMAZOO      MOCLDY    28  19  69 S7        30.03F WCI  21
LUDINGTON      CLOUDY    23  21  92 SE12      29.99F WCI  12
MARSHALL       MOCLDY    27  20  76 S7        30.03F WCI  19
MOUNT PLEASANT CLOUDY    24  22  91 SE6       30.06F WCI  17
MUSKEGON       CLOUDY    27  18  69 SE12      30.01F WCI  17
SOUTH HAVEN    CLOUDY    30  22  71 S7        30.01F WCI  23
$$
MIZ016>042-290300-
NORTHERN LOWER MICHIGAN

CITY           SKY/WX    TMP DP  RH WIND       PRES   REMARKS
ALPENA         CLOUDY    21  18  88 SE5       30.08F WCI  15
BEAVER ISLAND  CLOUDY    27  23  86 SE7       30.00F WCI  19
BELLAIRE       CLOUDY    25  19  80 S7        30.03F WCI  17
CADILLAC       LGT SNOW  22  18  87 SE9       29.98F WCI  11
CHARLEVOIX     CLOUDY    23  20  89 SE10      30.04F WCI  12
FRANKFORT      FLURRIES  24  22  89 SE12      29.99F WCI  13
GAYLORD        LGT SNOW  20  16  84 S8        30.00S FOG     WCI  10
GRAYLING       CLOUDY    21  19  90 SE6       30.03S WCI  13
HARBOR SPRINGS CLOUDY    23  18  81 E5        30.03F WCI  16
HOUGHTON LAKE  CLOUDY    22  18  85 S8        30.03S WCI  12
MANISTEE       CLOUDY    25  19  80 SE8       30.00F WCI  16
OSCODA         FLURRIES  25  21  85 S6        30.09F WCI  18
PELLSTON       CLOUDY    23  17  78 SE9       30.04F WCI  13
ROGERS CITY    FLURRIES  22  19  90 S8        30.08F WCI  12
TRAVERSE CITY  FLURRIES  26  19  74 CALM      30.02S
$$
MIZ007>008-015-290300-
EASTERN UPPER MICHIGAN

CITY           SKY/WX    TMP DP  RH WIND       PRES   REMARKS
KINROSS        CLOUDY    19  19 100 SE6       30.04F WCI  11
MACKINAC ISLAN CLOUDY    24  19  82 S10       30.03F WCI  14
NEWBERRY       LGT SNOW  18  17  97 E7        29.99F WCI   9
S. S. MARIE    CLOUDY    19  16  88 E5        30.05F WCI  12
MUNISING         N/A     21  15  78 VRB3      29.97F
$$
MIZ004>006-011>014-085-290300-
CENTRAL UPPER MICHIGAN

CITY           SKY/WX    TMP DP  RH WIND       PRES   REMARKS
MANISTIQUE     CLOUDY    23  22  95 E3        29.98S
ESCANABA       CLOUDY    23  19  86 N6        29.93F WCI  16
MENOMINEE      CLOUDY    21  18  86 CALM      29.93S
SAWYER-GWINN   CLOUDY    16  14  93 CALM      29.91F
$$
MIZ001>003-009>011-084-290300-
WESTERN UPPER MICHIGAN

CITY           SKY/WX    TMP DP  RH WIND       PRES   REMARKS
IRON MOUNTAIN  CLOUDY    15  11  83 CALM      29.89F
HOUGHTON       CLOUDY    19  12  74 SE7       29.88F WCI  10
COPPER HARBOR    N/A     22  15  75 CALM      29.93F
IRONWOOD       CLOUDY    16  12  86 SE7       29.81F WCI   6
$$

ABBREVIATIONS USED IN REMARKS
   TC - TEMPERATURE IN CELSIUS
  WCI - WIND CHILL INDEX
   HX - HEAT INDEX
  VSB - VISIBILITY



USA.gov is the U.S. government's official web portal to all federal, state and local government web resources and services.